Location: Kublov
(49.9438°N, 13.8766°E)
Time: 10:07:44
(UTC+00:00)

Daily predictions for brighter satellites

Satellite Brightness Start Highest point End
(mag) Time Altitude Azimuth Time Altitude Azimuth Time Altitude Azimuth
Cosmos 1943 3.6 19:51:56 10° NW 19:57:28 61° WSW 20:02:59 10° SSE
MOS 1-B 4.5 19:53:28 10° SSE 19:59:17 85° WSW 20:05:08 10° NNW
ATLAS 2AS CENTAUR R/B 3.7 19:53:51 10° NW 20:00:03 39° WSW 20:06:17 10° S
BlueWalker 3 4.1 20:00:20 10° WSW 20:02:06 13° SW 20:03:52 10° SSW
Cosmos 2219 3.8 19:57:06 10° SW 20:02:39 62° WNW 20:08:15 10° NNE
Cosmos 1655 Rocket 4.1 19:58:40 10° N 20:05:02 74° E 20:11:24 10° SSE
Cosmos 1461 2.6 20:04:33 10° NW 20:08:04 67° NE 20:11:30 10° SE
Meteor 1-18 Rocket 4.4 20:03:29 10° S 20:09:11 62° E 20:15:00 10° NNE
Cosmos 2298 Rocket 4.1 20:04:51 10° NNW 20:10:12 86° ENE 20:15:30 10° SSE
CZ-4B R/B 3.0 20:08:07 10° SSE 20:11:54 59° ENE 20:15:49 10° N
Cosmos 2150 Rocket 4.1 20:06:29 10° NNW 20:11:57 86° WSW 20:17:18 10° SSE
USA 186 1.6 20:11:34 10° S 20:13:52 51° WSW 20:16:05 10° NNW
Cosmos 1607 4.3 20:08:30 10° NW 20:14:53 66° NE 20:21:17 10° SE
Cosmos 1500 Rocket 4.2 20:11:51 10° N 20:15:58 40° ENE 20:19:50 11° SE
Sich 1 3.0 20:12:20 10° N 20:16:37 76° ENE 20:20:54 10° SSE
GP-B 4.1 20:16:43 10° NNE 20:20:38 31° E 20:24:13 12° SE
Cosmos 2285 Rocket 4.3 20:15:50 10° NNW 20:22:09 63° ENE 20:28:11 11° SE
Meteor 2-11 Rocket 4.5 20:16:54 10° N 20:23:00 79° E 20:29:04 10° SSE
Terra 4.0 20:22:54 10° SW 20:26:33 22° W 20:30:14 10° NW
CENTAUR R/B 3.3 20:24:06 10° WSW 20:29:47 59° NW 20:37:05 10° NE
Cosmos 1758 3.1 20:27:33 10° N 20:31:15 87° W 20:34:45 11° S
Cosmos 2208 Rocket 4.3 20:31:01 10° SSW 20:36:13 73° WNW 20:41:24 10° NNE
BREEZE-M DEB (TANK) 1.4 20:35:54 10° W 20:38:10 63° SSW 20:39:52 14° ESE
SPOT 3 Rocket 3.8 20:34:16 10° S 20:39:22 67° WSW 20:44:31 10° NNW
Okean 3 Rocket 4.0 20:42:24 10° NNW 20:46:49 62° W 20:51:06 10° S
Cosmos 724 4.3 20:42:14 10° NW 20:48:04 78° SW 20:52:53 15° SSE
Ariane Rocket 3.2 20:44:08 11° S 20:48:59 71° WSW 20:54:05 10° NNW
IRS-1C Rocket 4.3 20:44:30 11° S 20:49:31 72° WSW 20:54:48 10° NNW
NOSS 2-3 (E) 4.0 20:47:13 13° S 20:49:53 28° ESE 20:53:08 10° ENE
Okean-O 4.4 20:46:43 10° SSW 20:50:22 26° W 20:54:04 10° NW
Cosmos 1805 Rocket 3.5 20:48:48 10° NNW 20:53:08 83° W 20:56:46 15° S
Lacrosse 5 rocket 3.2 20:57:40 11° ESE 20:57:40 11° ESE 20:57:55 10° ESE
Cosmos 1340 Rocket 3.5 20:52:52 10° NNW 20:56:30 45° W 20:59:47 12° SSW
USA 215 3.3 20:50:12 10° ESE 20:56:45 88° SSW 21:03:20 10° WNW
NOSS 3-2 (A) 3.3 20:52:09 10° SW 20:57:14 83° NW 21:03:26 10° NE
Cosmos 1408 Rocket 3.7 20:52:53 10° NNW 20:57:18 75° W 21:01:00 14° S
Cosmos 1603 4.4 20:53:21 10° NW 20:58:48 46° WSW 21:03:42 13° S
Cosmos 1743 Rocket 3.5 21:00:21 10° N 21:04:41 78° E 21:07:49 19° SSE
Cosmos 1703 2.7 21:04:34 21° S 21:06:30 61° E 21:09:39 10° NNE
S3M 4.4 21:04:02 16° SSE 21:08:34 46° E 21:14:24 10° NNE
Cosmos 1844 Rocket 3.6 21:03:25 10° SW 21:08:50 50° NW 21:14:16 10° NNE
Meteor 1-22 Rocket 4.1 21:04:17 10° N 21:09:37 73° ENE 21:13:31 18° SSE
GEOS 3 Rocket 4.4 21:04:29 10° ESE 21:09:39 51° NE 21:14:52 10° NW
Cosmos 1553 Rocket 4.1 21:07:46 10° SSW 21:14:10 81° W 21:20:31 10° N
CZ-4C R/B 4.3 21:09:24 10° WNW 21:15:26 28° WSW 21:22:25 10° SSW
Cosmos 1833 Rocket 2.8 21:13:06 10° NNW 21:18:47 75° ENE 21:22:56 19° SE
Cosmos 1151 Rocket 3.6 21:14:43 10° SSW 21:18:59 57° WNW 21:23:16 10° N
Cosmos 1709 Rocket 4.2 21:13:51 10° N 21:20:10 62° ENE 21:24:50 19° SSE
Cosmos 2082 Rocket 4.0 21:19:15 10° NNW 21:23:53 25° NE 21:28:28 10° E
CZ-2C R/B 3.2 21:23:48 19° SSW 21:25:13 33° W 21:27:45 10° NNW
Cosmos 1953 1.9 21:24:06 10° N 21:27:42 87° E 21:29:35 26° S
Okean O Rocket 4.3 21:28:57 10° WSW 21:30:13 11° W 21:31:29 10° WNW
Cosmos 2278 Rocket 3.7 21:28:07 16° SE 21:30:18 20° E 21:34:17 10° NE
Cosmos 1633 Rocket 3.1 21:31:15 10° N 21:35:38 67° E 21:38:07 25° SSE
Meteor 1-13 Rocket 4.3 21:33:10 17° S 21:37:45 78° E 21:43:43 10° NNE
NOSS 3-2 (C) 3.1 21:33:30 10° SW 21:38:34 82° SE 21:44:42 10° NE
NOSS 2-3 (C) 3.0 21:42:37 24° SSW 21:44:26 57° SE 21:47:59 10° NE
Cosmos 1680 Rocket 4.4 21:42:32 22° SE 21:44:52 32° ESE 21:49:25 10° NE
Cosmos 1745 Rocket 4.2 21:40:15 10° NNW 21:46:28 71° W 21:51:04 19° S
Cosmos 1400 Rocket 4.1 21:46:03 10° N 21:49:15 27° ENE 21:51:03 18° ESE
Cosmos 2056 Rocket 4.0 21:44:58 10° NNW 21:49:58 50° ENE 21:53:26 19° SE
USA 238 DEB 4.3 21:48:54 22° SSE 21:51:47 33° ESE 21:57:33 10° NE
USA 238 4.3 21:49:09 22° SSE 21:52:00 32° ESE 21:57:46 10° NE
Helios 1A 2.8 21:51:13 10° NNE 21:55:10 88° WNW 21:57:27 24° SSW
ACS3 Solar Sail 3.7 21:53:51 10° NE 21:56:34 13° E 21:59:17 10° ESE
Cosmos 2344 3.5 21:49:16 10° SSW 21:57:00 60° SE 22:04:03 10° NE
Helios 1B rocket 1.9 21:57:41 34° SSE 21:59:05 81° ENE 22:02:34 10° NNW
Iridium 4 Rocket 4.4 21:55:05 12° SSW 21:59:47 44° W 22:04:38 10° N
ARIANE 5 R/B 2.9 21:59:12 25° SE 22:01:38 62° ENE 22:06:02 10° N
BREEZE-M R/B 4.4 21:57:31 10° SW 22:02:24 49° SE 22:12:10 10° ENE
Cosmos 1470 Rocket 3.5 22:02:59 10° N 22:07:28 88° WSW 22:09:41 29° S
Okean 2 3.3 22:07:04 33° SSE 22:08:35 64° E 22:12:24 10° NNE
Cosmos 1241 Rocket 4.4 22:03:35 10° SW 22:09:47 87° NW 22:16:05 10° NE
Cosmos 1420 Rocket 4.1 22:05:09 10° NNW 22:10:20 67° WSW 22:13:10 27° S
NOSS 2-3 (D) 3.8 22:08:10 10° WSW 22:11:48 56° NW 22:15:41 10° NE
ALOS 2 2.7 22:11:55 28° SSE 22:14:09 70° ENE 22:18:32 10° N
Cosmos 1933 Rocket 4.0 22:10:36 10° N 22:14:48 50° ENE 22:16:54 27° SE
Cosmos 2315 Rocket 4.1 22:13:38 19° SSW 22:18:16 73° WNW 22:24:30 10° N
Cosmos 1943 Rocket 2.3 22:16:33 25° S 22:19:44 58° ESE 22:25:16 10° NE
Cosmos 2074 Rocket 4.3 22:15:20 10° N 22:21:30 59° ENE 22:25:27 23° SSE
Cosmos 1441 Rocket 4.0 22:21:17 26° ESE 22:21:47 27° E 22:24:36 10° NE
Meteor 1-21 4.3 22:18:13 21° SSW 22:22:02 77° WNW 22:27:43 10° N
Cosmos 923 Rocket 3.9 22:21:16 23° SSW 22:24:39 87° ESE 22:29:54 10° NNE
CZ-2C R/B 3.7 22:22:25 10° NNE 22:27:07 86° WNW 22:29:46 26° SSW
Cosmos 1328 Rocket 4.5 22:24:40 17° SW 22:27:38 42° WNW 22:31:47 10° N
Cosmos 2112 Rocket 4.1 22:28:53 28° S 22:31:30 62° ESE 22:36:37 10° NNE
Lacrosse 5 rocket 0.8 22:30:44 29° SW 22:32:26 72° SE 22:35:56 10° ENE
CZ-2C R/B 3.2 22:31:43 20° SE 22:35:04 49° ENE 22:40:06 10° N
USA 81 4.0 22:32:47 10° N 22:38:04 84° W 22:40:53 28° S
USA 215 4.1 22:37:29 24° S 22:40:18 33° SW 22:46:06 10° WNW
Cosmos 1371 Rocket 4.0 22:35:43 10° NNW 22:40:58 72° WSW 22:43:38 29° S
PSLV R/B 3.7 22:37:47 10° NNE 22:42:27 82° ESE 22:44:44 30° S
Timation 2 Rocket 4.4 22:42:27 26° S 22:45:40 48° ESE 22:51:53 10° NE
Helios 1B 4.5 22:42:19 10° NNE 22:46:35 77° ESE 22:48:24 34° S
Cosmos 1869 Rocket 3.5 22:42:32 10° N 22:46:52 78° E 22:48:44 33° SSE
GEOS 3 Rocket 4.2 22:45:16 28° S 22:47:40 44° WSW 22:52:49 10° NW
Cosmos 1452 Rocket 4.4 22:42:51 10° NNW 22:47:55 45° ENE 22:52:03 15° SE
Cosmos 1110 Rocket 4.2 22:42:55 10° NNW 22:48:07 64° ENE 22:51:24 22° SE
MetOp-A 3.3 22:53:36 34° SSE 22:55:14 78° ENE 22:59:05 10° NNW
Nadezhda 1 Rocket 4.3 22:51:54 25° SSE 22:55:23 56° E 23:01:25 10° NNE
NOSS 2-1 (D) 3.0 22:55:58 45° S 22:56:36 53° SE 22:59:37 10° NE
Cosmos 1515 Rocket 4.2 22:55:38 24° SW 22:57:57 49° WNW 23:02:11 10° N
Cosmos 2154 Rocket 4.0 22:51:56 10° N 22:58:10 88° W 23:01:51 26° S
Cosmos 2184 Rocket 4.0 22:52:55 10° NNW 22:59:11 81° W 23:02:54 26° S
NOSS 2-1 (C) 3.2 22:59:06 43° SSE 22:59:36 47° SE 23:02:38 10° NE
USA-17 4.4 22:57:57 10° NW 23:01:07 70° NE 23:02:27 31° ESE
Cosmos 1833 Rocket 4.3 22:58:01 10° NW 23:02:05 21° W 23:04:36 16° SW
USA 59 Rocket -0.9 23:01:29 44° SSW 23:02:22 74° SE 23:05:23 10° NE
SAR-Lupe-2 3.5 23:05:49 45° SSW 23:06:28 55° WSW 23:09:40 10° NNW
Cosmos 1733 Rocket 3.5 23:02:45 10° N 23:06:58 51° ENE 23:09:08 26° SE
Cosmos 1315 Rocket 4.5 23:05:00 10° N 23:08:12 25° ENE 23:10:37 14° ESE
Cosmos 2082 Rocket 2.1 23:02:55 10° NNW 23:08:35 79° WSW 23:11:51 26° SSE
Okean 3 3.8 23:09:18 29° SW 23:11:02 52° WNW 23:14:58 10° N
Cosmos 2278 Rocket 2.3 23:09:54 22° SW 23:13:43 78° WNW 23:19:25 10° NNE
Cosmos 1862 Rocket 4.2 23:13:23 27° SE 23:15:12 43° E 23:19:16 10° NNE
Cosmos 1656 Rocket 4.3 23:13:57 26° SSE 23:16:26 41° ESE 23:21:34 10° NE
Cosmos 1331 Rocket 3.9 23:15:39 10° NNW 23:20:48 77° WSW 23:23:34 28° SSE
Okean 1-7 3.4 23:20:00 30° SSE 23:21:43 50° E 23:25:49 10° NNE
Cosmos 1400 Rocket 4.0 23:21:25 10° NW 23:24:29 25° W 23:25:30 22° WSW
SL-8 Rocket 4.4 23:18:38 10° N 23:24:43 56° ENE 23:29:13 18° SSE
CZ-2C R/B 3.3 23:20:52 10° N 23:26:27 70° WNW 23:29:38 25° SSW
Cosmos 1680 Rocket 4.4 23:22:43 15° SW 23:26:44 43° WNW 23:31:43 10° NNE
COSMOS 2406 3.3 23:21:12 10° NNW 23:26:55 74° ENE 23:31:27 17° SE
IRIDIUM 106 4.3 23:27:24 10° N 23:32:40 87° E 23:35:33 27° S
Cosmos 1048 Rocket 4.0 23:31:19 27° SSW 23:34:16 83° WNW 23:39:35 10° NNE
Cosmos 1328 3.6 23:35:16 38° SSW 23:36:27 66° WNW 23:40:00 10° N
ACS3 Solar Sail 1.6 23:34:00 10° NNE 23:39:45 77° ESE 23:43:11 26° S
USA 238 DEB 3.9 23:36:16 11° WSW 23:42:13 66° NW 23:49:07 10° NE
USA 238 3.9 23:36:32 11° SW 23:42:26 67° NW 23:49:19 10° NE
Lacrosse 4 Rocket 3.8 23:39:52 10° NNW 23:43:15 23° NE 23:46:36 10° E
ARIANE 6 FM1 Upper Stage 4.5 23:43:05 16° SE 23:43:58 17° ESE 23:46:42 10° ENE
Geosat 3.9 23:41:48 10° NNE 23:46:50 83° ESE 23:49:42 26° SSW
BREEZE-M DEB (TANK) 2.9 23:40:55 10° W 23:51:10 76° SSW 23:54:37 10° ESE
SWAS 4.4 23:52:23 28° SW 23:54:23 72° WNW 23:58:28 10° NNE
